Location: Erlenbrunn
(49.1717°N, 7.6142°E)
Time: 18:32:49
(UTC+00:00)

H-2A R/B - Visible Passes

Search period start: 16 April 2021 00:00
Search period end: 26 April 2021 00:00
Orbit: 577 x 654 km, 98.5° (Epoch: 15 April)

Date Brightness Start Highest point End Pass type
(mag) Time Alt. Az. Time Alt. Az. Time Alt. Az.
16 Apr 5.6 02:38:47 10° ENE 02:40:13 11° NE 02:41:39 10° NE visible
16 Apr 5.5 19:06:32 10° NNW 19:09:14 16° WNW 19:11:56 10° W visible
17 Apr 5.3 02:53:31 10° E 02:56:02 16° ENE 02:58:33 10° NNE visible
17 Apr 5.8 19:23:20 10° NNW 19:25:03 12° NW 19:26:44 10° WNW visible
18 Apr 5.0 03:08:42 10° ESE 03:11:51 21° ENE 03:15:04 10° NNE visible
19 Apr 4.5 03:24:08 10° ESE 03:27:43 28° ENE 03:31:25 10° N visible
20 Apr 3.8 03:39:43 10° SE 03:43:38 38° ENE 03:47:40 10° N visible
22 Apr 5.7 02:38:59 10° ENE 02:40:23 11° NE 02:41:48 10° NE visible
22 Apr 5.5 19:06:36 10° NNW 19:09:26 17° WNW 19:12:16 10° W visible
23 Apr 5.4 02:53:40 10° E 02:56:11 15° ENE 02:58:44 10° NNE visible
23 Apr 5.8 19:23:20 10° NNW 19:25:15 13° NW 19:27:09 10° W visible
24 Apr 5.1 03:08:50 10° ESE 03:12:01 20° ENE 03:15:15 10° NNE visible
25 Apr 4.6 03:24:14 10° ESE 03:27:53 27° ENE 03:31:36 10° N visible
